FW6463 Weather Reports


Display with metric or nautical units.
time (UTC)temp
F
wind
direction
speed
MPH
gust
MPH
rain 1hr
in
rain 24hr
in
rain mn
in
humidity
%
barometer
mb
20260507202029 68 344 5.0 8.0 0.00 0.00 0.00 42 1011.3
20260507201015 70 300 6.0 9.0 0.00 0.00 0.00 41 1011.5
20260507200020 69 263 4.0 7.0 0.00 0.00 0.00 44 1011.7
20260507195025 68 261 4.0 7.0 0.00 0.00 0.00 43 1011.8
20260507194030 67 310 3.0 4.0 0.00 0.00 0.00 43 1011.9
20260507193016 68 292 5.0 7.0 0.00 0.00 0.00 42 1012.1
20260507192022 68 329 5.0 8.0 0.00 0.00 0.00 43 1012.2
20260507191026 68 296 4.0 9.0 0.00 0.00 0.00 43 1012.2
20260507190031 68 307 7.0 13.0 0.00 0.00 0.00 42 1012.2
20260507185017 67 240 3.0 6.0 0.00 0.00 0.00 44 1012.3
20260507184022 67 283 3.0 4.0 0.00 0.00 0.00 43 1012.5
20260507183027 67 278 5.0 9.0 0.00 0.00 0.00 44 1012.6
20260507182032 67 304 5.0 8.0 0.00 0.00 0.00 44 1012.7
20260507181018 66 312 5.0 8.0 0.00 0.00 0.00 45 1012.8
20260507180023 65 311 4.0 7.0 0.00 0.00 0.00 43 1013.2
20260507175028 65 271 6.0 12.0 0.00 0.00 0.00 44 1013.2
20260507174033 66 317 4.0 7.0 0.00 0.00 0.00 43 1013.2
20260507173019 65 296 4.0 7.0 0.00 0.00 0.00 43 1013.3
20260507172025 65 258 5.0 9.0 0.00 0.00 0.00 43 1013.5
20260507171029 65 291 5.0 9.0 0.00 0.00 0.00 45 1013.7
20260507170016 64 310 3.0 6.0 0.00 0.00 0.00 45 1014.0
20260507165020 65 281 5.0 10.0 0.00 0.00 0.00 46 1014.0
20260507164025 64 259 4.0 7.0 0.00 0.00 0.00 45 1014.1
20260507163031 62 201 3.0 5.0 0.00 0.00 0.00 47 1014.2
20260507162018 63 293 5.0 8.0 0.00 0.00 0.00 48 1014.4
20260507161023 62 266 3.0 5.0 0.00 0.00 0.00 46 1014.6
20260507160027 62 335 3.0 5.0 0.00 0.00 0.00 48 1014.6
20260507155031 62 275 5.0 8.0 0.00 0.00 0.00 48 1014.6
20260507154018 61 177 3.0 5.0 0.00 0.00 0.00 50 1014.7
20260507153024 61 275 4.0 5.0 0.00 0.00 0.00 50 1015.0
20260507152049 60 290 3.0 5.0 0.00 0.00 0.00 51 1015.3
20260507151033 59 285 3.0 6.0 0.00 0.00 0.00 51 1015.4
20260507150019 60 293 3.0 5.0 0.00 0.00 0.00 51 1015.7
20260507145104 58 213 3.0 5.0 0.00 0.00 0.00 51 1015.8
20260507144029 59 271 5.0 7.0 0.00 0.00 0.00 51 1015.9
20260507143016 58 347 5.0 8.0 0.00 0.04 0.00 51 1015.9
20260507142020 58 293 4.0 6.0 0.00 0.05 0.00 49 1016.0
20260507141026 57 258 4.0 5.0 0.00 0.07 0.00 49 1016.3
20260507140044 56 240 3.0 5.0 0.00 0.09 0.00 52 1016.4
20260507135017 56 264 2.0 5.0 0.00 0.11 0.00 52 1016.5
20260507134023 54 46 2.0 4.0 0.00 0.14 0.00 52 1016.6
20260507133020 54 317 2.0 4.0 0.00 0.18 0.00 54 1016.6
20260507132019 53 314 2.0 4.0 0.00 0.18 0.00 55 1016.5
20260507131018 52 295 3.0 4.0 0.00 0.20 0.00 55 1016.5
20260507130018 52 296 4.0 5.0 0.00 0.20 0.00 58 1016.4
20260507125015 52 296 3.0 5.0 0.00 0.20 0.00 57 1016.4
20260507124033 52 296 3.0 5.0 0.00 0.20 0.00 61 1016.4
20260507123019 52 282 4.0 5.0 0.00 0.20 0.00 59 1016.4
20260507122044 52 300 2.0 3.0 0.00 0.20 0.00 60 1016.5
20260507121028 51 302 3.0 5.0 0.00 0.20 0.00 59 1016.5
20260507120034 51 317 3.0 4.0 0.00 0.21 0.00 60 1016.4
20260507115040 51 301 2.0 4.0 0.00 0.21 0.00 62 1016.5
20260507114024 51 303 4.0 5.0 0.00 0.22 0.00 62 1016.5
20260507113030 51 314 3.0 5.0 0.00 0.22 0.00 61 1016.4
20260507112016 50 317 2.0 3.0 0.00 0.22 0.00 66 1016.3
20260507111042 50 315 0.0 2.0 0.00 0.22 0.00 65 1016.0
20260507110025 50 309 2.0 4.0 0.00 0.22 0.00 66 1015.9
20260507105112 49 287 1.0 3.0 0.00 0.22 0.00 67 1015.8
20260507104037 49 321 2.0 3.0 0.00 0.22 0.00 67 1015.7
20260507103022 49 349 2.0 4.0 0.00 0.22 0.00 68 1015.6
20260507102027 49 300 1.0 3.0 0.00 0.22 0.00 69 1015.4
20260507101031 49 10 2.0 3.0 0.00 0.22 0.00 69 1015.3
20260507100038 49 0.0 0.0 0.00 0.22 0.00 68 1015.3
20260507095023 50 32 0.0 2.0 0.00 0.22 0.00 68 1015.2
20260507094037 50 0.0 0.0 0.00 0.22 0.00 68 1015.2
20260507093017 50 327 2.0 4.0 0.00 0.22 0.00 69 1015.2
20260507092022 50 317 2.0 4.0 0.00 0.22 0.00 68 1015.1
20260507091026 50 1 2.0 4.0 0.00 0.22 0.00 68 1014.9
20260507090031 50 5 3.0 4.0 0.00 0.22 0.00 68 1014.7
20260507085018 50 339 2.0 4.0 0.00 0.22 0.00 69 1014.7
20260507084023 50 113 0.0 1.0 0.00 0.22 0.00 69 1014.7
20260507083028 50 343 1.0 3.0 0.00 0.22 0.00 69 1014.7
20260507082053 50 32 1.0 3.0 0.00 0.22 0.00 66 1014.9
20260507081019 51 328 2.0 4.0 0.00 0.22 0.00 67 1014.9
20260507080046 51 324 2.0 4.0 0.00 0.22 0.00 66 1015.0
20260507075029 51 316 4.0 6.0 0.00 0.22 0.00 64 1015.0
20260507074016 51 328 3.0 5.0 0.00 0.22 0.00 65 1015.1
20260507073020 51 307 2.0 5.0 0.00 0.22 0.00 68 1015.1
20260507072027 51 351 2.0 5.0 0.00 0.22 0.00 68 1015.0
20260507071030 52 133 1.0 2.0 0.00 0.22 0.00 68 1014.9
20260507070017 52 303 1.0 3.0 0.00 0.22 0.00 68 1015.0
20260507065022 52 303 3.0 4.0 0.00 0.22 0.00 69 1014.9
20260507064027 52 321 3.0 6.0 0.00 0.22 0.00 71 1014.9
20260507063031 52 318 3.0 5.0 0.00 0.22 0.00 77 1015.0
20260507062018 52 312 3.0 6.0 0.00 0.22 0.00 80 1015.0
20260507061023 52 327 4.0 7.0 0.00 0.22 0.00 84 1015.0
20260507055032 52 304 2.0 6.0 0.00 0.22 0.00 87 1014.7
20260507054020 52 358 2.0 3.0 0.00 0.22 0.00 87 1014.7
20260507053025 52 266 2.0 3.0 0.00 0.22 0.00 88 1014.9
20260507052029 52 298 3.0 6.0 0.00 0.22 0.00 88 1014.7
20260507051036 53 287 2.0 3.0 0.00 0.22 0.00 87 1014.7
20260507050021 53 328 2.0 4.0 0.00 0.22 0.00 85 1015.0
20260507045026 53 307 3.0 6.0 0.00 0.22 0.00 84 1014.9
20260507044031 53 291 4.0 6.0 0.00 0.22 0.00 85 1014.9
20260507043017 54 268 3.0 4.0 0.00 0.22 0.00 85 1015.1
20260507042043 54 289 3.0 5.0 0.00 0.22 0.00 85 1015.0
20260507041107 54 270 2.0 3.0 0.00 0.22 0.00 85 1015.0
20260507040522 54 289 3.0 5.0 0.00 0.22 0.00 85 1014.9
20260507035522 54 299 4.0 7.0 0.00 0.22 0.22 84 1014.7
20260507034520 54 316 4.0 6.0 0.00 0.22 0.22 86 1014.7
20260507033519 54 317 4.0 6.0 0.00 0.22 0.22 87 1015.0
20260507032539 54 295 2.0 3.0 0.00 0.22 0.22 88 1014.6
20260507031516 55 216 1.0 3.0 0.00 0.22 0.22 88 1014.5
20260507030515 55 288 2.0 4.0 0.00 0.22 0.22 89 1014.5
20260507025520 55 245 2.0 4.0 0.00 0.22 0.22 89 1014.7
20260507024524 55 342 3.0 4.0 0.00 0.22 0.22 89 1014.6
20260507023530 55 280 2.0 6.0 0.00 0.22 0.22 89 1014.7
20260507022516 55 286 2.0 4.0 0.00 0.22 0.22 89 1014.7
20260507021521 55 294 4.0 6.0 0.00 0.22 0.22 89 1014.6
20260507020606 56 302 4.0 6.0 0.00 0.22 0.22 89 1014.5
20260507015530 56 357 4.0 8.0 0.00 0.22 0.22 90 1014.4
20260507014518 56 314 4.0 7.0 0.00 0.22 0.22 91 1014.6
20260507013522 56 160 3.0 4.0 0.00 0.22 0.22 90 1014.4
20260507012527 57 301 2.0 4.0 0.00 0.22 0.22 89 1014.4
20260507011532 57 247 2.0 5.0 0.00 0.22 0.22 89 1014.4
20260507010518 58 275 3.0 5.0 0.00 0.22 0.22 88 1014.4
20260507005523 58 278 4.0 7.0 0.00 0.22 0.22 88 1014.4
20260507004528 58 244 2.0 4.0 0.00 0.22 0.22 88 1014.2
20260507003532 58 235 2.0 3.0 0.00 0.22 0.22 87 1013.9
20260507002539 59 278 4.0 8.0 0.00 0.22 0.22 87 1013.8
20260507001524 59 303 5.0 9.0 0.00 0.22 0.22 87 1013.7
20260507000529 59 292 7.0 10.0 0.00 0.22 0.22 86 1013.7
20260506235516 60 317 8.0 11.0 0.00 0.22 0.22 86 1013.0
20260506234541 60 297 6.0 9.0 0.00 0.22 0.22 87 1012.6
20260506233526 61 294 5.0 7.0 0.00 0.22 0.22 87 1012.2
20260506232530 61 297 6.0 11.0 0.00 0.22 0.22 86 1012.4
20260506231516 62 290 7.0 9.0 0.00 0.22 0.22 87 1012.3
20260506230522 62 303 5.0 8.0 0.00 0.22 0.22 87 1012.2
20260506225526 63 290 4.0 6.0 0.00 0.22 0.22 87 1012.1
20260506224531 63 296 4.0 5.0 0.00 0.22 0.22 87 1012.2
20260506223517 64 288 4.0 7.0 0.00 0.22 0.22 86 1012.1
20260506222523 64 290 4.0 6.0 0.00 0.22 0.22 86 1011.9
20260506221526 64 257 4.0 6.0 0.00 0.22 0.22 84 1011.8
20260506220552 65 254 5.0 8.0 0.00 0.22 0.22 84 1011.7
20260506215519 65 270 6.0 8.0 0.00 0.22 0.22 87 1011.6
20260506214523 65 252 3.0 6.0 0.00 0.22 0.22 99 1011.3
20260506213529 64 242 4.0 6.0 0.00 0.22 0.22 99 1011.3
20260506212533 64 257 4.0 5.0 0.00 0.22 0.22 99 1011.0
20260506211521 65 259 3.0 4.0 0.00 0.22 0.22 98 1010.7
20260506210524 65 248 4.0 7.0 0.00 0.22 0.22 96 1010.6
20260506205530 65 243 4.0 6.0 0.00 0.22 0.22 95 1010.5
20260506204515 66 218 3.0 5.0 0.00 0.22 0.22 93 1010.5
20260506203520 66 257 4.0 6.0 0.00 0.22 0.22 92 1010.3
20260506202525 67 252 6.0 9.0 0.00 0.22 0.22 91 1010.3